Location: Unspecified
(35.7250°N, 0.0000°E)
Time: 17:58:14
(UTC+00:00)

Courier 1B Rocket - Pass Details

Date: 21 August 2020
Orbit: 920 x 1202 km, 28.2° (Epoch: 30 September)

Event Time Altitude Azimuth Distance (km) Brightness Sun altitude
Rises 20:18:56 0° 214° (SSW) 3,845 8.2 -19.0°
Reaches altitude 10° 20:22:42 10° 196° (SSW) 2,834 7.3 -19.7°
Enters shadow 20:25:22 16° 174° (S) 2,361 6.7 -20.1°
